Location: Kaarina
(60.4167°N, 22.4167°E)
Time: 23:37:06
(UTC+03:00)

Cosmos 1733 Rocket - Pass Details

Date: 24 August 2019
Orbit: 604 x 628 km, 82.5° (Epoch: 15 September)

Event Time Altitude Azimuth Distance (km) Brightness Sun altitude
Rises 22:01:28 0° 196° (SSW) 2,853 6.2 -7.3°
Reaches altitude 10° 22:03:40 10° 197° (SSW) 1,954 5.4 -7.5°
Maximum altitude 22:08:00 80° 285° (WNW) 623 3.2 -7.9°
Drops below altitude 10° 22:12:23 10° 13° (NNE) 1,974 6.0 -8.3°
Sets 22:14:37 0° 15° (NNE) 2,885 6.9 -8.6°
